Montevideo, MN

6:44 AM CDT on April 27, 2017 (GMT -0500)
Montevideo-Chippewa County

Weather History for KMVE - November, 2012

Change the Weather History Date:

Friday, November 16, 2012

  Actual Average Record
Temperature  
Mean Temperature 28 °F -  
Max Temperature 42 °F 40 °F 73 °F (2001)
Min Temperature 15 °F 22 °F -3 °F (1959)
Degree Days  
Heating Degree Days 36    
Moisture  
Dew Point 22 °F    
Average Humidity 73    
Maximum Humidity 100    
Minimum Humidity 42    
Precipitation  
Precipitation 0.00 in - - ()
Sea Level Pressure  
Sea Level Pressure 30.37 in    
Wind  
Wind Speed 6 mph (South)    
Max Wind Speed 13 mph    
Max Gust Speed 20 mph    
Visibility 10 miles    
Events      
Averages and records for this station are not official NWS values.
T = Trace of Precipitation, MM = Missing Value Source: NWS Daily Summary

Daily Weather History Graph

Daily Weather History Graph

Search for Another Location

Airport or City:

Trip Planner

Search our weather history database for the weather conditions in past years. The results will help you decide how hot, cold, wet, or windy it might be!

Date:

Astronomy

Nov. 16, 2012 Rise Set
Actual Time 7:22 AM CST 4:52 PM CST
Civil Twilight 6:50 AM CST 5:24 PM CST
Nautical Twilight 6:14 AM CST 6:00 PM CST
Astronomical Twilight 5:40 AM CST 6:34 PM CST
Moon 10:20 AM CST (11/16) 7:51 PM CST (11/16)
Length of Visible Light 10h 33m
Length of Day
9h 30m
Waxing Crescent, 12% of the Moon is Illuminated
Nov 16
Waxing Crescent
Nov 20
First Quarter
Nov 28
Full
Dec 6
Last Quarter
Dec 13
New

Hourly Weather History & Observations

Time (CST) Temp. Windchill Dew Point Humidity Pressure Visibility Wind Dir Wind Speed Gust Speed Precip Events Conditions
12:14 AM 21.2 °F 14.9 °F 19.4 °F 93% 30.50 in 10.0 mi North 4.6 mph - N/A   Clear
12:34 AM 21.2 °F 14.9 °F 19.4 °F 93% 30.50 in 10.0 mi North 4.6 mph - N/A   Clear
12:54 AM 21.2 °F 16.4 °F 19.4 °F 93% 30.50 in 10.0 mi NNW 3.5 mph - N/A   Clear
1:14 AM 21.2 °F - 19.4 °F 93% 30.49 in 10.0 mi Calm Calm - N/A   Clear
1:34 AM 21.2 °F 16.4 °F 19.4 °F 93% 30.49 in 10.0 mi North 3.5 mph - N/A   Clear
1:54 AM 21.2 °F - 19.4 °F 93% 30.49 in 10.0 mi Calm Calm - N/A   Clear
2:14 AM 21.2 °F - 19.4 °F 93% 30.49 in 10.0 mi Calm Calm - N/A   Clear
2:34 AM 21.2 °F - 19.4 °F 93% 30.49 in 10.0 mi Calm Calm - N/A   Clear
2:54 AM 19.4 °F - 17.6 °F 93% 30.48 in 10.0 mi Calm Calm - N/A   Clear
3:14 AM 19.4 °F - 19.4 °F 100% 30.48 in 10.0 mi Calm Calm - N/A   Clear
3:34 AM 19.4 °F - 19.4 °F 100% 30.48 in 10.0 mi Calm Calm - N/A   Clear
3:54 AM 19.4 °F - 17.6 °F 93% 30.47 in 10.0 mi Calm Calm - N/A   Clear
4:14 AM 17.6 °F - 17.6 °F 100% 30.47 in 10.0 mi Calm Calm - N/A   Clear
4:34 AM 19.4 °F 14.3 °F 17.6 °F 93% 30.46 in 10.0 mi South 3.5 mph - N/A   Clear
4:54 AM 19.4 °F - 17.6 °F 93% 30.46 in 10.0 mi Calm Calm - N/A   Clear
5:14 AM 19.4 °F - 19.4 °F 100% 30.46 in 10.0 mi Calm Calm - N/A   Clear
5:34 AM 17.6 °F 12.3 °F 15.8 °F 93% 30.45 in 10.0 mi South 3.5 mph - N/A   Clear
5:54 AM 17.6 °F 12.3 °F 17.6 °F 100% 30.45 in 10.0 mi South 3.5 mph - N/A   Clear
6:14 AM 15.8 °F 8.6 °F 15.8 °F 100% 30.44 in 10.0 mi South 4.6 mph - N/A   Clear
6:34 AM 19.4 °F 14.3 °F 17.6 °F 93% 30.44 in 10.0 mi South 3.5 mph - N/A   Clear
6:54 AM 19.4 °F 12.8 °F 17.6 °F 93% 30.44 in 10.0 mi South 4.6 mph - N/A   Clear
7:14 AM 17.6 °F 10.7 °F 15.8 °F 93% 30.44 in 10.0 mi South 4.6 mph - N/A   Clear
7:34 AM 19.4 °F 12.8 °F 17.6 °F 93% 30.44 in 10.0 mi SSW 4.6 mph - N/A   Clear
7:54 AM 21.2 °F 14.9 °F 17.6 °F 86% 30.45 in 10.0 mi SSW 4.6 mph - N/A   Clear
8:14 AM 21.2 °F 14.9 °F 17.6 °F 86% 30.46 in 10.0 mi SSW 4.6 mph - N/A   Clear
8:34 AM 21.2 °F 13.6 °F 19.4 °F 93% 30.46 in 10.0 mi SSW 5.8 mph - N/A   Clear
8:54 AM 24.8 °F 16.9 °F 19.4 °F 80% 30.46 in 10.0 mi South 6.9 mph - N/A   Clear
9:14 AM 24.8 °F 15.3 °F 19.4 °F 80% 30.45 in 10.0 mi South 9.2 mph - N/A   Clear
9:34 AM 26.6 °F 17.5 °F 19.4 °F 74% 30.45 in 10.0 mi South 9.2 mph - N/A   Clear
9:54 AM 28.4 °F 20.4 °F 21.2 °F 74% 30.45 in 10.0 mi SSW 8.1 mph - N/A   Clear
10:14 AM 30.2 °F 23.4 °F 21.2 °F 69% 30.45 in 10.0 mi SSW 6.9 mph - N/A   Clear
10:34 AM 32.0 °F 25.6 °F 21.2 °F 64% 30.45 in 10.0 mi South 6.9 mph - N/A   Clear
10:54 AM 33.8 °F 25.8 °F 21.2 °F 60% 30.44 in 10.0 mi South 10.4 mph - N/A   Clear
11:14 AM 35.6 °F 29.2 °F 21.2 °F 56% 30.43 in 10.0 mi South 8.1 mph - N/A   Clear
11:34 AM 35.6 °F 28.6 °F 19.4 °F 52% 30.42 in 10.0 mi South 9.2 mph - N/A   Clear
11:54 AM 37.4 °F 32.1 °F 19.4 °F 48% 30.41 in 10.0 mi South 6.9 mph - N/A   Clear
12:14 PM 37.4 °F 30.8 °F 19.4 °F 48% 30.39 in 10.0 mi South 9.2 mph - N/A   Clear
12:34 PM 39.2 °F 33.0 °F 21.2 °F 49% 30.38 in 10.0 mi SSW 9.2 mph - N/A   Clear
12:54 PM 39.2 °F 32.5 °F 21.2 °F 49% 30.37 in 10.0 mi South 10.4 mph - N/A   Clear
1:14 PM 39.2 °F 31.6 °F 23.0 °F 52% 30.35 in 10.0 mi South 12.7 mph 17.3 mph N/A   Clear
1:34 PM 41.0 °F 34.3 °F 23.0 °F 49% 30.34 in 10.0 mi South 11.5 mph 16.1 mph N/A   Clear
1:54 PM 42.8 °F 36.2 °F 21.2 °F 42% 30.33 in 10.0 mi South 12.7 mph 16.1 mph N/A   Clear
2:14 PM 42.8 °F 36.6 °F 21.2 °F 42% 30.32 in 10.0 mi South 11.5 mph - N/A   Clear
2:34 PM 42.8 °F 36.6 °F 21.2 °F 42% 30.31 in 10.0 mi South 11.5 mph 17.3 mph N/A   Clear
2:54 PM 42.8 °F 36.2 °F 21.2 °F 42% 30.31 in 10.0 mi South 12.7 mph - N/A   Clear
3:14 PM 42.8 °F 36.2 °F 21.2 °F 42% 30.29 in 10.0 mi South 12.7 mph 17.3 mph N/A   Clear
3:34 PM 42.8 °F 37.0 °F 21.2 °F 42% 30.29 in 10.0 mi South 10.4 mph - N/A   Clear
3:54 PM 42.8 °F 36.2 °F 21.2 °F 42% 30.28 in 10.0 mi South 12.7 mph 19.6 mph N/A   Clear
4:14 PM 42.8 °F 36.6 °F 21.2 °F 42% 30.28 in 10.0 mi South 11.5 mph - N/A   Clear
4:34 PM 39.2 °F 33.0 °F 24.8 °F 56% 30.27 in 10.0 mi South 9.2 mph - N/A   Clear
4:54 PM 37.4 °F 30.3 °F 24.8 °F 60% 30.26 in 10.0 mi South 10.4 mph - N/A   Clear
5:14 PM 37.4 °F 30.3 °F 24.8 °F 60% 30.25 in 10.0 mi South 10.4 mph - N/A   Clear
5:34 PM 35.6 °F 29.2 °F 24.8 °F 65% 30.25 in 10.0 mi South 8.1 mph - N/A   Clear
5:54 PM 35.6 °F 28.0 °F 26.6 °F 70% 30.25 in 10.0 mi South 10.4 mph - N/A   Clear
6:12 PM 35.6 °F 27.5 °F 26.6 °F 70% 30.24 in 10.0 mi SSE 11.5 mph - N/A   Clear
6:34 PM 32.0 °F 24.2 °F 26.6 °F 80% 30.24 in 10.0 mi South 9.2 mph - N/A   Clear
6:54 PM 35.6 °F 28.6 °F 26.6 °F 70% 30.24 in 10.0 mi South 9.2 mph - N/A   Clear
7:14 PM 35.6 °F 27.5 °F 26.6 °F 70% 30.23 in 10.0 mi South 11.5 mph - N/A   Clear
7:54 PM 35.6 °F 28.0 °F 26.6 °F 70% 30.23 in 10.0 mi South 10.4 mph - N/A   Clear
8:14 PM 35.6 °F 28.6 °F 26.6 °F 70% 30.23 in 10.0 mi South 9.2 mph - N/A   Clear
8:34 PM 35.6 °F 27.1 °F 26.6 °F 70% 30.22 in 10.0 mi South 12.7 mph - N/A   Clear
8:54 PM 37.4 °F 30.3 °F 26.6 °F 65% 30.22 in 10.0 mi South 10.4 mph - N/A   Clear
9:14 PM 37.4 °F 30.8 °F 26.6 °F 65% 30.22 in 10.0 mi South 9.2 mph - N/A   Clear
9:54 PM 35.6 °F 27.5 °F 28.4 °F 75% 30.21 in 10.0 mi South 11.5 mph - N/A   Clear
10:14 PM 37.4 °F 30.3 °F 28.4 °F 70% 30.21 in 10.0 mi South 10.4 mph 17.3 mph N/A   Clear
10:34 PM 35.6 °F 28.0 °F 28.4 °F 75% 30.21 in 10.0 mi South 10.4 mph - N/A   Clear
10:54 PM 37.4 °F 30.3 °F 28.4 °F 70% 30.21 in 10.0 mi SSW 10.4 mph - N/A   Clear
11:14 PM 37.4 °F 29.8 °F 28.4 °F 70% 30.20 in 10.0 mi South 11.5 mph 19.6 mph N/A   Clear
11:34 PM 37.4 °F 29.3 °F 28.4 °F 70% 30.19 in 10.0 mi SSW 12.7 mph 17.3 mph N/A   Clear
11:54 PM 37.4 °F 30.3 °F 30.2 °F 75% 30.19 in 10.0 mi SSW 10.4 mph - N/A   Clear